{"data":{"norad_id":66889,"epoch":"2026-05-24T22:57:06.398784Z","epoch_age_seconds":89503,"freshness":"FRESH","line1":"1 66889U 25283M   26144.95632406  .00025756  00000+0  77098-3 0  9997","line2":"2 66889  53.1605  29.7232 0001146  84.0899 276.0234 15.34392350 27529","mean_motion":15.3439235,"eccentricity":0.0001146,"inclination_deg":53.1605,"raan_deg":29.7232,"arg_perigee_deg":84.0899,"mean_anomaly_deg":276.0234,"bstar":0.00077098,"rev_number":2752,"period_min":93.848225976883,"perigee_km":461.94201481649,"apogee_km":463.50994061098,"semimajor_km":6840.8629777137,"source":"CELESTRAK","updated_at":"2026-05-25T13:38:21.380245Z"}}